Location: Peach Mountain Observatory
(42.3967°N, 83.9367°W)
Time: 11:41:53
(UTC-05:00)

deb Explorer IX - Pass Details

Date: 02 February 2020
Orbit: 549 x 1099 km, 38.8° (Epoch: 17 February)

Event Time Altitude Azimuth Distance (km) Brightness Sun altitude
Rises 19:57:09 0° 249° (WSW) 3,337 ? -23.6°
Reaches altitude 10° 19:59:32 10° 245° (WSW) 2,487 ? -24.0°
Maximum altitude 20:05:25 58° 168° (SSE) 1,100 ? -25.1°
Enters shadow 20:06:32 51° 130° (SE) 1,197 ? -25.3°
